CDT,Max TemperatureF,Mean TemperatureF,Min TemperatureF,Max Dew PointF,MeanDew PointF,Min DewpointF,Max Humidity, Mean Humidity, Min Humidity, Max Sea Level PressureIn, Mean Sea Level PressureIn, Min Sea Level PressureIn, Max VisibilityMiles, Mean VisibilityMiles, Min VisibilityMiles, Max Wind SpeedMPH, Mean Wind SpeedMPH, Max Gust SpeedMPH,PrecipitationIn, CloudCover, Events, WindDirDegrees
2012-7-1,96,84,71,71,66,58,93,60,27,29.85,29.80,29.74,10,10,6,20,9,24,0.00,0,,154
2012-7-2,103,88,73,69,66,62,87,57,27,29.77,29.73,29.68,10,10,8,23,13,33,0.00,0,,178
2012-7-3,98,87,75,75,69,65,76,57,39,29.75,29.69,29.62,10,10,10,12,6,,0.00,0,,128
2012-7-4,102,89,75,75,68,64,76,54,30,29.76,29.66,29.64,10,10,9,29,10,44,0.00,0,,208
2012-7-5,91,83,74,75,73,71,91,75,61,29.94,29.87,29.77,10,10,8,16,10,21,0.00,2,,51
2012-7-6,98,84,70,74,68,63,84,63,36,30.05,29.87,29.80,10,10,10,26,13,33,0.00,0,,291
2012-7-7,84,75,65,63,61,55,88,67,38,30.18,30.13,30.06,10,10,10,17,10,23,T,2,Rain,26
2012-7-8,88,77,66,64,61,56,90,63,35,30.24,30.18,30.12,10,10,10,10,4,,0.01,2,Rain,3
2012-7-9,90,76,61,63,60,57,87,58,36,30.17,30.14,30.10,10,10,10,17,6,18,0.00,0,,22
2012-7-10,90,75,59,60,57,55,90,56,32,30.18,30.13,30.06,10,10,10,13,6,16,0.00,1,,133
2012-7-11,91,77,63,58,56,55,78,48,31,30.10,30.03,29.93,10,10,10,21,12,25,0.00,0,,162
2012-7-12,93,81,69,61,60,57,75,51,33,29.94,29.90,29.86,10,10,10,18,9,25,T,0,,190
2012-7-13,96,81,65,65,61,55,81,53,25,29.98,29.95,29.91,10,10,10,10,4,20,0.00,0,,183
2012-7-14,93,79,65,68,65,62,93,66,38,30.03,29.98,29.94,10,10,10,13,5,16,0.00,0,,99
2012-7-15,100,87,73,67,64,60,79,54,27,29.97,29.87,29.76,10,10,10,25,15,31,0.00,0,,148
2012-7-16,105,93,80,65,60,56,54,37,20,29.78,29.71,29.63,10,10,10,20,13,28,0.00,0,,188
2012-7-17,98,83,67,75,69,65,90,65,40,29.76,29.72,29.68,10,10,10,22,8,29,0.00,0,,101
2012-7-18,93,83,73,74,70,65,88,65,41,29.91,29.84,29.75,10,10,7,18,5,26,0.11,1,Rain,53
2012-7-19,102,84,66,71,67,62,93,61,29,29.98,29.94,29.89,10,10,5,14,6,17,0.00,0,,147
2012-7-20,103,88,73,71,64,52,79,49,18,30.05,29.95,29.88,10,10,10,20,11,32,0.01,1,Rain,157
2012-7-21,95,85,75,70,67,64,82,59,36,29.99,29.91,29.83,10,10,10,22,10,35,T,0,,135
2012-7-22,102,88,73,69,66,62,84,51,29,29.91,29.88,29.84,10,10,10,18,6,26,T,0,Rain,246
2012-7-23,96,86,76,73,66,55,72,52,31,29.94,29.86,29.78,10,10,10,22,10,30,T,0,Rain,127
2012-7-24,104,89,73,70,65,58,79,51,22,29.81,29.72,29.60,10,10,10,24,11,30,0.00,0,,151
2012-7-25,87,78,69,72,67,59,81,64,53,29.74,29.66,29.55,10,10,10,21,8,29,T,0,Rain,338
2012-7-26,90,75,60,62,57,52,90,56,30,29.97,29.85,29.75,10,10,10,26,12,33,0.00,0,,301
2012-7-27,84,71,58,59,57,56,93,67,40,30.10,30.05,29.99,10,10,10,13,7,16,0.01,0,,1
2012-7-28,88,78,67,64,63,59,87,65,43,30.07,29.97,29.88,10,10,10,33,15,41,0.11,2,Rain,160
2012-7-29,93,77,61,69,64,60,93,66,38,29.97,29.92,29.88,10,10,10,15,2,20,0.00,0,,45
2012-7-30,94,81,67,69,64,57,93,60,30,29.98,29.92,29.87,10,10,4,17,7,21,0.00,0,,38
2012-7-31,96,79,62,65,62,46,93,63,33,30.00,29.94,29.85,10,10,10,15,9,23,0.00,0,,133